timestamp,wind_dir_avg,wind_spd_avg,wind_spd_max_dir,wind_spd_gust,battery_voltage,lat,long
2022-12-22 00:04:00+00:00,340.0,7.14,346.0,8.2,12.41,47.59359,-54.27349
2022-12-22 00:14:00+00:00,345.0,8.35,349.0,10.02,12.41,47.59359,-54.27349
2022-12-22 00:24:00+00:00,339.0,7.78,339.0,9.27,12.41,47.59359,-54.27349
2022-12-22 00:34:00+00:00,345.0,10.22,346.0,11.37,12.41,47.59359,-54.27349
2022-12-22 00:44:00+00:00,343.0,8.93,345.0,10.27,12.41,47.59359,-54.27349
2022-12-22 00:54:00+00:00,341.0,8.47,342.0,9.96,12.41,47.59359,-54.27349
2022-12-22 01:04:00+00:00,340.0,7.94,343.0,9.58,12.41,47.59359,-54.27349
2022-12-22 01:14:00+00:00,341.0,7.36,340.0,8.02,12.41,47.59359,-54.27349
2022-12-22 01:24:00+00:00,337.0,7.01,343.0,8.23,12.41,47.59359,-54.27349
2022-12-22 01:34:00+00:00,337.0,7.46,340.0,8.05,12.41,47.59359,-54.27349
2022-12-22 01:44:00+00:00,341.0,8.44,343.0,9.62,12.41,47.59359,-54.27349
2022-12-22 01:54:00+00:00,340.0,8.67,343.0,9.52,12.41,47.59359,-54.27349
2022-12-22 02:04:00+00:00,343.0,9.21,345.0,10.53,12.41,47.59359,-54.27349
2022-12-22 02:14:00+00:00,345.0,8.77,343.0,10.98,12.41,47.59359,-54.27349
2022-12-22 02:24:00+00:00,345.0,8.6,348.0,10.1,12.41,47.59359,-54.27349
2022-12-22 02:34:00+00:00,348.0,8.31,354.0,9.42,12.41,47.59359,-54.27349
2022-12-22 02:44:00+00:00,345.0,7.61,351.0,8.5,12.41,47.59359,-54.27349
2022-12-22 02:54:00+00:00,340.0,7.51,341.0,8.3,12.41,47.59359,-54.27349
2022-12-22 03:04:00+00:00,331.0,7.0,327.0,7.84,12.41,47.59359,-54.27349
2022-12-22 03:14:00+00:00,330.0,6.58,333.0,7.43,12.33,47.59359,-54.27349
2022-12-22 03:24:00+00:00,336.0,6.96,343.0,8.03,12.33,47.59359,-54.27349
2022-12-22 03:34:00+00:00,334.0,6.43,330.0,7.06,12.33,47.59359,-54.27349
2022-12-22 03:44:00+00:00,329.0,6.72,325.0,7.35,12.33,47.59359,-54.27349
2022-12-22 03:54:00+00:00,328.0,7.22,327.0,8.05,12.33,47.59359,-54.27349
2022-12-22 04:04:00+00:00,333.0,6.36,332.0,7.69,12.33,47.59359,-54.27349
2022-12-22 04:14:00+00:00,327.0,6.55,323.0,7.72,12.33,47.59359,-54.27349
2022-12-22 04:24:00+00:00,339.0,5.87,338.0,7.25,12.33,47.59359,-54.27349
2022-12-22 04:34:00+00:00,338.0,6.41,337.0,7.29,12.33,47.59359,-54.27349
2022-12-22 04:44:00+00:00,331.0,6.7,326.0,7.67,12.33,47.59359,-54.27349
2022-12-22 04:54:00+00:00,340.0,6.86,325.0,8.39,12.33,47.59359,-54.27349
2022-12-22 05:04:00+00:00,333.0,6.29,335.0,7.17,12.33,47.59359,-54.27349
2022-12-22 05:14:01+00:00,338.0,6.4,333.0,7.79,12.33,47.59359,-54.27349
2022-12-22 05:24:01+00:00,330.0,6.52,326.0,7.6,12.33,47.59359,-54.27349
2022-12-22 05:34:01+00:00,340.0,7.82,344.0,8.98,12.33,47.59359,-54.27349
2022-12-22 05:44:01+00:00,331.0,7.38,326.0,8.7,12.33,47.59359,-54.27349
2022-12-22 05:54:01+00:00,324.0,7.66,325.0,8.68,12.33,47.59359,-54.27349
2022-12-22 06:04:01+00:00,319.0,7.38,321.0,8.9,12.33,47.59359,-54.27349
2022-12-22 06:14:00+00:00,325.0,7.67,323.0,8.45,12.25,47.59359,-54.27349
2022-12-22 06:24:00+00:00,331.0,6.86,329.0,7.81,12.25,47.59359,-54.27349
2022-12-22 06:34:00+00:00,324.0,7.49,325.0,8.61,12.25,47.59359,-54.27349
2022-12-22 06:44:00+00:00,325.0,7.66,323.0,8.83,12.25,47.59359,-54.27349
2022-12-22 06:54:00+00:00,327.0,8.17,327.0,9.25,12.25,47.59359,-54.27349
2022-12-22 07:04:00+00:00,330.0,7.73,332.0,8.8,12.25,47.59359,-54.27349
2022-12-22 07:14:00+00:00,327.0,7.23,333.0,8.62,12.25,47.59359,-54.27349
2022-12-22 07:24:00+00:00,323.0,7.3,326.0,8.34,12.25,47.59359,-54.27349
2022-12-22 07:34:00+00:00,319.0,7.15,318.0,7.82,12.25,47.59359,-54.27349
2022-12-22 07:44:00+00:00,325.0,6.53,329.0,7.86,12.25,47.59359,-54.27349
2022-12-22 07:54:00+00:00,324.0,6.09,326.0,6.65,12.25,47.59359,-54.27349
2022-12-22 08:04:00+00:00,322.0,5.82,324.0,6.32,12.25,47.59359,-54.27349
2022-12-22 08:14:00+00:00,318.0,6.1,322.0,7.35,12.25,47.59359,-54.27349
2022-12-22 08:24:00+00:00,322.0,5.58,322.0,6.19,12.25,47.59359,-54.27349
2022-12-22 08:34:00+00:00,330.0,6.24,331.0,6.82,12.25,47.59359,-54.27349
2022-12-22 08:44:00+00:00,336.0,5.13,335.0,5.82,12.25,47.59359,-54.27349
2022-12-22 08:54:00+00:00,338.0,4.62,338.0,4.99,12.25,47.59359,-54.27349
2022-12-22 09:04:00+00:00,333.0,3.69,336.0,4.24,12.25,47.59359,-54.27349
2022-12-22 09:14:00+00:00,332.0,2.66,325.0,3.53,12.25,47.59359,-54.27349
2022-12-22 09:24:00+00:00,313.0,4.52,313.0,5.21,12.25,47.59359,-54.27349
2022-12-22 09:34:00+00:00,316.0,5.5,318.0,6.18,12.25,47.59359,-54.27349
2022-12-22 09:44:00+00:00,313.0,4.32,314.0,5.35,12.25,47.59359,-54.27349
2022-12-22 09:54:00+00:00,317.0,5.33,320.0,5.87,12.25,47.59359,-54.27349
2022-12-22 10:04:00+00:00,305.0,4.42,301.0,5.21,12.25,47.59359,-54.27349
2022-12-22 10:14:01+00:00,314.0,3.91,312.0,4.56,12.25,47.59359,-54.27349
2022-12-22 10:24:01+00:00,312.0,3.88,313.0,4.33,12.25,47.59359,-54.27349
2022-12-22 10:34:01+00:00,315.0,5.73,320.0,6.38,12.25,47.59359,-54.27349
2022-12-22 10:44:01+00:00,305.0,6.4,311.0,7.22,12.25,47.59359,-54.27349
2022-12-22 10:54:01+00:00,300.0,6.18,303.0,6.93,12.25,47.59359,-54.27349
2022-12-22 11:04:01+00:00,295.0,5.68,293.0,6.46,12.25,47.59359,-54.27349
2022-12-22 12:14:00+00:00,300.0,5.24,300.0,6.03,12.25,47.59359,-54.27349
2022-12-22 12:24:00+00:00,310.0,5.59,312.0,6.77,12.25,47.59359,-54.27349
2022-12-22 12:34:00+00:00,321.0,5.29,319.0,5.77,12.25,47.59359,-54.27349
2022-12-22 12:44:00+00:00,323.0,5.14,324.0,6.1,12.25,47.59359,-54.27349
2022-12-22 12:54:00+00:00,320.0,5.01,322.0,5.7,12.25,47.59359,-54.27349
2022-12-22 13:04:00+00:00,296.0,5.12,294.0,5.63,12.25,47.59359,-54.27349
2022-12-22 13:14:00+00:00,307.0,5.55,310.0,6.44,12.57,47.59359,-54.27349
2022-12-22 13:24:00+00:00,301.0,5.82,301.0,6.95,12.57,47.59359,-54.27349
2022-12-22 13:34:00+00:00,309.0,5.6,307.0,6.39,12.57,47.59359,-54.27349
2022-12-22 13:44:00+00:00,308.0,4.39,306.0,4.88,12.57,47.59359,-54.27349
2022-12-22 13:54:00+00:00,305.0,4.34,311.0,5.02,12.57,47.59359,-54.27349
2022-12-22 14:04:00+00:00,298.0,5.08,300.0,5.97,12.57,47.59359,-54.27349
2022-12-22 14:14:00+00:00,296.0,5.5,295.0,6.63,14.24,47.59359,-54.27349
2022-12-22 14:24:00+00:00,312.0,6.18,317.0,7.99,14.24,47.59359,-54.27349
2022-12-22 14:34:00+00:00,295.0,7.65,291.0,8.94,14.24,47.59359,-54.27349
2022-12-22 14:44:00+00:00,303.0,6.42,298.0,7.58,14.24,47.59359,-54.27349
2022-12-22 14:54:00+00:00,323.0,6.15,324.0,7.06,14.24,47.59359,-54.27349
2022-12-22 15:04:00+00:00,311.0,5.25,313.0,6.4,14.24,47.59359,-54.27349
2022-12-22 15:14:00+00:00,304.0,5.17,309.0,6.2,13.68,47.59359,-54.27349
2022-12-22 15:24:00+00:00,303.0,7.65,300.0,9.64,13.68,47.59359,-54.27349
2022-12-22 15:34:00+00:00,309.0,6.59,298.0,7.68,13.68,47.59359,-54.27349
2022-12-22 15:44:00+00:00,309.0,6.95,312.0,7.63,13.68,47.59359,-54.27349
2022-12-22 15:54:00+00:00,300.0,7.8,298.0,9.14,13.68,47.59359,-54.27349
2022-12-22 16:04:00+00:00,305.0,6.55,314.0,7.38,13.68,47.59359,-54.27349
2022-12-22 16:14:00+00:00,308.0,6.82,295.0,8.34,13.53,47.59359,-54.27349
2022-12-22 16:24:00+00:00,326.0,5.46,333.0,6.46,13.53,47.59359,-54.27349
2022-12-22 16:34:00+00:00,318.0,5.96,319.0,6.61,13.53,47.59359,-54.27349
2022-12-22 16:44:00+00:00,310.0,6.92,308.0,8.21,13.53,47.59359,-54.27349
2022-12-22 16:54:00+00:00,311.0,5.38,325.0,6.16,13.53,47.59359,-54.27349
2022-12-22 17:04:00+00:00,314.0,5.1,316.0,5.81,13.53,47.59359,-54.27349
2022-12-22 17:14:01+00:00,307.0,6.61,308.0,8.09,13.6,47.59359,-54.27349
2022-12-22 17:24:01+00:00,307.0,6.98,302.0,8.67,13.6,47.59359,-54.27349
2022-12-22 17:34:01+00:00,315.0,5.74,322.0,6.41,13.6,47.59359,-54.27349
2022-12-22 17:44:01+00:00,319.0,4.95,321.0,5.35,13.6,47.59359,-54.27349
2022-12-22 17:54:01+00:00,303.0,5.61,306.0,6.17,13.6,47.59359,-54.27349
2022-12-22 18:04:01+00:00,307.0,4.89,305.0,5.88,13.6,47.59359,-54.27349
2022-12-22 18:14:01+00:00,300.0,5.91,294.0,6.6,13.76,47.59359,-54.27349
2022-12-22 18:24:01+00:00,295.0,4.88,304.0,5.55,13.76,47.59359,-54.27349
2022-12-22 18:34:01+00:00,283.0,7.14,280.0,9.42,13.76,47.59359,-54.27349
2022-12-22 18:44:01+00:00,305.0,5.66,304.0,6.31,13.76,47.59359,-54.27349
2022-12-22 18:54:01+00:00,296.0,5.71,280.0,8.57,13.76,47.59359,-54.27349
2022-12-22 19:04:01+00:00,292.0,6.13,279.0,9.77,13.76,47.59359,-54.27349
2022-12-22 19:14:00+00:00,295.0,6.25,290.0,9.37,13.68,47.59359,-54.27349
2022-12-22 19:24:00+00:00,291.0,7.13,288.0,10.01,13.68,47.59359,-54.27349
2022-12-22 19:34:00+00:00,279.0,4.81,273.0,8.18,13.68,47.59359,-54.27349
2022-12-22 19:44:00+00:00,270.0,4.79,264.0,9.14,13.68,47.59359,-54.27349
2022-12-22 19:54:00+00:00,271.0,9.47,272.0,10.25,13.68,47.59359,-54.27349
2022-12-22 20:04:00+00:00,272.0,8.06,273.0,9.96,13.68,47.59359,-54.27349
2022-12-22 20:14:00+00:00,268.0,4.35,269.0,5.71,12.65,47.59359,-54.27349
2022-12-22 20:24:00+00:00,287.0,4.56,297.0,5.21,12.65,47.59359,-54.27349
2022-12-22 20:34:00+00:00,280.0,4.1,291.0,4.64,12.65,47.59359,-54.27349
2022-12-22 20:44:00+00:00,272.0,4.36,274.0,5.88,12.65,47.59359,-54.27349
2022-12-22 20:54:00+00:00,286.0,3.17,297.0,3.76,12.65,47.59359,-54.27349
2022-12-22 21:04:00+00:00,252.0,3.04,249.0,3.53,12.65,47.59359,-54.27349
2022-12-22 21:14:00+00:00,261.0,3.18,263.0,3.64,12.49,47.59359,-54.27349
2022-12-22 21:24:00+00:00,279.0,3.23,278.0,3.67,12.49,47.59359,-54.27349
2022-12-22 21:34:00+00:00,257.0,4.23,265.0,4.74,12.49,47.59359,-54.27349
2022-12-22 21:44:00+00:00,264.0,4.05,263.0,4.48,12.49,47.59359,-54.27349
2022-12-22 21:54:00+00:00,274.0,3.88,276.0,4.61,12.49,47.59359,-54.27349
2022-12-22 22:04:00+00:00,269.0,3.91,271.0,4.93,12.49,47.59359,-54.27349
2022-12-22 22:14:00+00:00,264.0,4.29,259.0,4.65,12.49,47.59359,-54.27349
2022-12-22 22:24:00+00:00,273.0,3.97,266.0,5.61,12.49,47.59359,-54.27349
2022-12-22 22:34:00+00:00,275.0,4.05,276.0,4.47,12.49,47.59359,-54.27349
2022-12-22 22:44:00+00:00,274.0,4.06,278.0,4.66,12.49,47.59359,-54.27349
2022-12-22 22:54:00+00:00,275.0,4.8,273.0,8.91,12.49,47.59359,-54.27349
2022-12-22 23:04:00+00:00,290.0,4.32,301.0,4.8,12.49,47.59359,-54.27349
2022-12-22 23:14:00+00:00,282.0,4.04,276.0,4.37,12.41,47.59359,-54.27349
2022-12-22 23:24:00+00:00,289.0,4.56,293.0,4.92,12.41,47.59359,-54.27349
2022-12-22 23:34:00+00:00,285.0,4.37,286.0,4.81,12.41,47.59359,-54.27349
2022-12-22 23:44:00+00:00,271.0,4.1,275.0,4.58,12.41,47.59359,-54.27349
2022-12-22 23:54:00+00:00,291.0,4.64,292.0,5.23,12.41,47.59359,-54.27349
